This demonstration page uses our WeatherBlox Daily Observations layout. Learn more.

Left ArrowRight Arrow

Hourly Observations for April 14, 2018

Temp ( °F °C ) Dew Point ( °F °C ) Humidity (%) Winds ( mph kmh ) Pressure ( in mb ) Visibility ( mi km ) Precip ( " mm )
12:51 am 00:51 Clear 52 11.1 0 -17.8 11 11 N 12 19 30.09 1019 10 16 0.00 0.00
1:51 am 01:51 Clear 49 9.4 1 -17.2 14 14 WNW 8 13 30.10 1019 10 16 0.00 0.00
2:51 am 02:51 Clear 46 7.8 1 -17.2 15 15 W 5 7 30.11 1020 10 16 0.00 0.00
3:51 am 03:51 Clear 45 7.2 2 -16.7 16 16 N 7 11 30.11 1020 10 16 0.00 0.00
4:51 am 04:51 Clear 41 5 2 -16.7 19 19 Calm 30.13 1020 10 16 0.00 0.00
5:51 am 05:51 Sunny 43 6.1 4 -15.6 20 20 NNW 5 7 30.15 1021 10 16 0.00 0.00
6:51 am 06:51 Sunny 45 7.2 4 -15.6 18 18 Calm 30.17 1022 10 16 0.00 0.00
7:51 am 07:51 Sunny 50 10 5 -15 16 16 NNW 5 7 30.18 1022 10 16 0.00 0.00
8:51 am 08:51 Sunny 55 12.8 5 -15 13 13 WNW 6 9 30.17 1022 10 16 0.00 0.00
9:51 am 09:51 Sunny 58 14.4 4 -15.6 11 11 VRB 5 7 30.15 1021 10 16 0.00 0.00
10:51 am 10:51 Sunny 61 16.1 4 -15.6 10 10 Calm 30.14 1021 10 16 0.00 0.00
11:51 am 11:51 Sunny 64 17.8 4 -15.6 9 9 SW 8 13 30.11 1020 10 16 0.00 0.00
12:51 pm 12:51 Sunny 68 20 3 -16.1 7 7 VRB 5 7 30.08 1019 10 16 0.00 0.00
1:51 pm 13:51 Sunny 70 21.1 -1 -18.3 6 6 WNW 8 13 30.05 1018 10 16 0.00 0.00
2:51 pm 14:51 Sunny 74 23.3 3 -16.1 6 6 NW 17 28 30.02 1017 10 16 0.00 0.00
3:04 pm 15:04 Sunny 73 23 3 -16 6 6 NNW 14 22 29.91 1013 10 16 0.00 0.00
3:51 pm 15:51 Sunny 74 23.3 2 -16.7 6 6 W 17 28 29.99 1016 10 16 0.00 0.00
4:51 pm 16:51 Sunny 75 23.9 0 -17.8 5 5 NW 16 26 29.98 1015 10 16 0.00 0.00
5:51 pm 17:51 Sunny 74 23.3 0 -17.8 5 5 W 13 20 29.97 1015 10 16 0.00 0.00
6:51 pm 18:51 Clear 70 21.1 -2 -18.9 5 5 W 9 15 29.98 1015 10 16 0.00 0.00
7:51 pm 19:51 Clear 64 17.8 -1 -18.3 7 7 W 5 7 29.99 1016 10 16 0.00 0.00
8:51 pm 20:51 Clear 63 17.2 0 -17.8 8 8 NW 10 17 30.02 1017 10 16 0.00 0.00
9:51 pm 21:51 Clear 60 15.6 1 -17.2 9 9 NNW 9 15 30.03 1017 10 16 0.00 0.00
10:51 pm 22:51 Clear 60 15.6 2 -16.7 9 9 NNW 10 17 30.02 1017 10 16 0.00 0.00
11:51 pm 23:51 Clear 58 14.4 2 -16.7 10 10 NNW 9 15 30.02 1017 10 16 0.00 0.00

Powered by AerisWeather